| time (UTC) | temp F | wind direction | speed MPH | gust MPH | rain 1hr in | rain 24hr in | rain mn in | humidity % | barometer mb |
| 20260902155014 | 89 | 206 | 4.0 | 9.0 | 0.00 | 0.00 | 0.00 | 65 | 1016.1 |
| 20260902155011 | 89 | 267 | 2.0 | 4.0 | 0.00 | 0.00 | 0.00 | 65 | 1016.9 |
| 20260902154510 | 89 | 229 | 1.0 | 4.0 | 0.00 | 0.00 | 0.00 | 65 | 1016.9 |
| 20260902154507 | 89 | 198 | 4.0 | 11.0 | 0.00 | 0.00 | 0.00 | 65 | 1016.0 |
| 20260902154007 | 89 | 165 | 2.0 | 4.0 | 0.00 | 0.00 | 0.00 | 66 | 1016.9 |
| 20260902154002 | 89 | 238 | 4.0 | 11.0 | 0.00 | 0.00 | 0.00 | 66 | 1016.0 |
| 20260902153515 | 88 | 219 | 1.0 | 4.0 | 0.00 | 0.00 | 0.00 | 68 | 1017.1 |
| 20260902153505 | 88 | 191 | 4.0 | 8.0 | 0.00 | 0.00 | 0.00 | 68 | 1016.2 |
| 20260902153011 | 89 | 221 | 2.0 | 4.0 | 0.00 | 0.00 | 0.00 | 67 | 1016.8 |
| 20260902153006 | 89 | 214 | 5.0 | 8.0 | 0.00 | 0.00 | 0.00 | 67 | 1016.3 |
| 20260902152506 | 88 | 184 | 5.0 | 8.0 | 0.00 | 0.00 | 0.00 | 69 | 1016.2 |
| 20260902152007 | 87 | 243 | 2.0 | 3.0 | 0.00 | 0.00 | 0.00 | 69 | 1016.8 |
| 20260902151524 | 87 | 215 | 1.0 | 4.0 | 0.00 | 0.00 | 0.00 | 70 | 1016.8 |
| 20260902151516 | 87 | 221 | 5.0 | 8.0 | 0.00 | 0.00 | 0.00 | 70 | 1016.4 |
| 20260902151005 | 87 | 198 | 1.0 | 4.0 | 0.00 | 0.00 | 0.00 | 72 | 1016.9 |
| 20260902150507 | 86 | 227 | 1.0 | 4.0 | 0.00 | 0.00 | 0.00 | 73 | 1016.8 |
| 20260902150023 | 85 | 202 | 2.0 | 5.0 | 0.00 | 0.00 | 0.00 | 73 | 1016.9 |
| 20260902145512 | 85 | 243 | 5.0 | 9.0 | 0.00 | 0.00 | 0.00 | 75 | 1016.3 |
| 20260902145510 | 85 | 254 | 1.0 | 5.0 | 0.00 | 0.00 | 0.00 | 75 | 1016.8 |
| 20260902145008 | 84 | 263 | 1.0 | 6.0 | 0.00 | 0.00 | 0.00 | 76 | 1016.9 |
| 20260902145006 | 84 | 276 | 5.0 | 8.0 | 0.00 | 0.00 | 0.00 | 76 | 1016.3 |
| 20260902144522 | 84 | 254 | 5.0 | 9.0 | 0.00 | 0.00 | 0.00 | 77 | 1016.3 |
| 20260902144518 | 84 | 207 | 2.0 | 6.0 | 0.00 | 0.00 | 0.00 | 77 | 1016.9 |
| 20260902144014 | 84 | 199 | 1.0 | 5.0 | 0.00 | 0.00 | 0.00 | 76 | 1016.9 |
| 20260902143519 | 83 | 137 | 1.0 | 7.0 | 0.00 | 0.00 | 0.00 | 78 | 1017.0 |
| 20260902143503 | 83 | 216 | 5.0 | 11.0 | 0.00 | 0.00 | 0.00 | 78 | 1016.3 |
| 20260902143016 | 83 | 219 | 2.0 | 7.0 | 0.00 | 0.00 | 0.00 | 79 | 1017.0 |
| 20260902143009 | 83 | 221 | 8.0 | 11.0 | 0.00 | 0.00 | 0.00 | 79 | 1016.3 |
| 20260902142514 | 82 | 216 | 2.0 | 6.0 | 0.00 | 0.00 | 0.00 | 79 | 1016.9 |
| 20260902142503 | 82 | 192 | 8.0 | 11.0 | 0.00 | 0.00 | 0.00 | 79 | 1016.3 |
| 20260902142007 | 82 | 229 | 7.0 | 10.0 | 0.00 | 0.00 | 0.00 | 81 | 1016.3 |
| 20260902141512 | 81 | 214 | 2.0 | 5.0 | 0.00 | 0.00 | 0.00 | 81 | 1017.0 |
| 20260902141009 | 81 | 214 | 3.0 | 4.0 | 0.00 | 0.00 | 0.00 | 81 | 1017.1 |
| 20260902140509 | 80 | 211 | 6.0 | 10.0 | 0.00 | 0.00 | 0.00 | 82 | 1016.3 |
| 20260902140019 | 80 | 194 | 2.0 | 4.0 | 0.00 | 0.00 | 0.00 | 83 | 1017.2 |
| 20260902140007 | 80 | 227 | 5.0 | 9.0 | 0.00 | 0.00 | 0.00 | 83 | 1016.3 |
| 20260902135509 | 80 | 254 | 5.0 | 9.0 | 0.00 | 0.00 | 0.00 | 83 | 1016.2 |
| 20260902135507 | 80 | 186 | 1.0 | 4.0 | 0.00 | 0.00 | 0.00 | 83 | 1017.1 |
| 20260902135011 | 79 | 229 | 4.0 | 9.0 | 0.00 | 0.00 | 0.00 | 83 | 1016.2 |
| 20260902134534 | 79 | 209 | 2.0 | 4.0 | 0.00 | 0.00 | 0.00 | 84 | 1017.1 |
| 20260902134527 | 79 | 215 | 6.0 | 9.0 | 0.00 | 0.00 | 0.00 | 84 | 1016.1 |
| 20260902134007 | 79 | 260 | 5.0 | 9.0 | 0.00 | 0.00 | 0.00 | 84 | 1016.1 |
| 20260902133510 | 78 | 214 | 4.0 | 8.0 | 0.00 | 0.00 | 0.00 | 84 | 1016.1 |
| 20260902133028 | 78 | 261 | 3.0 | 8.0 | 0.00 | 0.00 | 0.00 | 85 | 1016.0 |
| 20260902132520 | 77 | 188 | 1.0 | 2.0 | 0.00 | 0.00 | 0.00 | 86 | 1016.9 |
| 20260902132505 | 77 | 229 | 4.0 | 8.0 | 0.00 | 0.00 | 0.00 | 86 | 1016.0 |
| 20260902132007 | 77 | 207 | 1.0 | 2.0 | 0.00 | 0.00 | 0.00 | 86 | 1016.9 |
| 20260902132003 | 77 | 210 | 2.0 | 5.0 | 0.00 | 0.00 | 0.00 | 86 | 1015.9 |
| 20260902131511 | 76 | 202 | 3.0 | 5.0 | 0.00 | 0.00 | 0.00 | 87 | 1015.8 |
| 20260902131509 | 76 | 219 | 1.0 | 2.0 | 0.00 | 0.00 | 0.00 | 87 | 1016.7 |
| 20260902131004 | 76 | 215 | 1.0 | 2.0 | 0.00 | 0.00 | 0.00 | 87 | 1016.7 |
| 20260902130508 | 76 | 209 | 3.0 | 5.0 | 0.00 | 0.00 | 0.00 | 88 | 1015.7 |
| 20260902130016 | 75 | 211 | 3.0 | 5.0 | 0.00 | 0.00 | 0.00 | 88 | 1015.6 |
| 20260902125511 | 75 | 196 | 2.0 | 4.0 | 0.00 | 0.00 | 0.00 | 88 | 1015.6 |
| 20260902125509 | 75 | 210 | 1.0 | 2.0 | 0.00 | 0.00 | 0.00 | 88 | 1016.5 |
| 20260902125011 | 75 | 229 | 1.0 | 2.0 | 0.00 | 0.00 | 0.00 | 88 | 1016.4 |
| 20260902125004 | 75 | 217 | 3.0 | 4.0 | 0.00 | 0.00 | 0.00 | 88 | 1015.5 |
| 20260902124519 | 75 | 208 | 2.0 | 4.0 | 0.00 | 0.00 | 0.00 | 88 | 1015.4 |
| 20260902124517 | 75 | 213 | 1.0 | 2.0 | 0.00 | 0.00 | 0.00 | 88 | 1016.3 |
| 20260902124013 | 74 | 190 | 2.0 | 4.0 | 0.00 | 0.00 | 0.00 | 89 | 1015.4 |
| 20260902123514 | 74 | 242 | 0.0 | 2.0 | 0.00 | 0.00 | 0.00 | 89 | 1016.2 |
| 20260902123512 | 74 | 208 | 2.0 | 4.0 | 0.00 | 0.00 | 0.00 | 89 | 1015.3 |
| 20260902123019 | 74 | 225 | 1.0 | 2.0 | 0.00 | 0.00 | 0.00 | 89 | 1016.1 |
| 20260902122513 | 74 | 221 | 1.0 | 2.0 | 0.00 | 0.00 | 0.00 | 88 | 1016.1 |
| 20260902122015 | 74 | 201 | 0.0 | 2.0 | 0.00 | 0.00 | 0.00 | 88 | 1015.3 |
| 20260902122013 | 74 | 231 | 1.0 | 2.0 | 0.00 | 0.00 | 0.00 | 88 | 1016.0 |
| 20260902121531 | 74 | 231 | 0.0 | 2.0 | 0.00 | 0.00 | 0.00 | 88 | 1016.0 |
| 20260902121512 | 74 | 213 | 0.0 | 2.0 | 0.00 | 0.00 | 0.00 | 88 | 1015.3 |
| 20260902121008 | 74 | 231 | 0.0 | 2.0 | 0.00 | 0.00 | 0.00 | 88 | 1015.9 |
| 20260902121006 | 74 | 200 | 0.0 | 2.0 | 0.00 | 0.00 | 0.00 | 88 | 1015.2 |
| 20260902120508 | 74 | 231 | 0.0 | 2.0 | 0.00 | 0.00 | 0.00 | 88 | 1015.9 |
| 20260902120505 | 74 | 200 | 0.0 | 2.0 | 0.00 | 0.00 | 0.00 | 88 | 1015.2 |
| 20260902120030 | 74 | 200 | 0.0 | 2.0 | 0.00 | 0.00 | 0.00 | 88 | 1015.2 |
| 20260902120014 | 74 | 231 | 0.0 | 2.0 | 0.00 | 0.00 | 0.00 | 88 | 1016.0 |
| 20260902115507 | 74 | 231 | 0.0 | 2.0 | 0.00 | 0.00 | 0.00 | 88 | 1016.0 |
| 20260902115010 | 74 | 231 | 0.0 | 0.0 | 0.00 | 0.00 | 0.00 | 88 | 1016.1 |
| 20260902114530 | 74 | 200 | 0.0 | 0.0 | 0.00 | 0.00 | 0.00 | 88 | 1015.4 |
| 20260902114525 | 74 | 231 | 0.0 | 0.0 | 0.00 | 0.00 | 0.00 | 88 | 1016.0 |
| 20260902114011 | 74 | 231 | 0.0 | 0.0 | 0.00 | 0.00 | 0.00 | 88 | 1016.0 |
| 20260902113510 | 74 | 200 | 0.0 | 0.0 | 0.00 | 0.00 | 0.00 | 88 | 1015.3 |
| 20260902113507 | 74 | 231 | 0.0 | 0.0 | 0.00 | 0.00 | 0.00 | 88 | 1016.0 |
| 20260902113028 | 74 | 232 | 0.0 | 0.0 | 0.00 | 0.00 | 0.00 | 88 | 1015.3 |
| 20260902112514 | 74 | 232 | 0.0 | 0.0 | 0.00 | 0.00 | 0.00 | 88 | 1015.3 |
| 20260902112512 | 74 | 231 | 0.0 | 0.0 | 0.00 | 0.00 | 0.00 | 88 | 1016.0 |
| 20260902112007 | 74 | 231 | 0.0 | 0.0 | 0.00 | 0.00 | 0.00 | 87 | 1016.0 |
| 20260902111526 | 74 | 231 | 0.0 | 0.0 | 0.00 | 0.00 | 0.00 | 87 | 1016.0 |
| 20260902111524 | 74 | 232 | 0.0 | 0.0 | 0.00 | 0.00 | 0.00 | 87 | 1015.3 |
| 20260902111016 | 75 | 231 | 0.0 | 0.0 | 0.00 | 0.00 | 0.00 | 86 | 1016.0 |
| 20260902110518 | 75 | 232 | 0.0 | 0.0 | 0.00 | 0.00 | 0.00 | 86 | 1015.3 |
| 20260902110028 | 75 | 231 | 0.0 | 2.0 | 0.00 | 0.00 | 0.00 | 85 | 1016.0 |
| 20260902110020 | 75 | 232 | 0.0 | 2.0 | 0.00 | 0.00 | 0.00 | 85 | 1015.4 |
| 20260902105507 | 75 | 231 | 0.0 | 2.0 | 0.00 | 0.00 | 0.00 | 85 | 1016.0 |
| 20260902105505 | 75 | 232 | 0.0 | 2.0 | 0.00 | 0.00 | 0.00 | 85 | 1015.4 |
| 20260902105008 | 76 | 232 | 0.0 | 2.0 | 0.00 | 0.00 | 0.00 | 85 | 1015.3 |
| 20260902104539 | 76 | 231 | 0.0 | 2.0 | 0.00 | 0.00 | 0.00 | 85 | 1016.0 |
| 20260902104517 | 76 | 232 | 1.0 | 3.0 | 0.00 | 0.00 | 0.00 | 85 | 1015.3 |
| 20260902104011 | 76 | 232 | 1.0 | 2.0 | 0.00 | 0.00 | 0.00 | 85 | 1016.0 |
| 20260902103510 | 76 | 209 | 2.0 | 4.0 | 0.00 | 0.00 | 0.00 | 85 | 1015.2 |
| 20260902103504 | 76 | 226 | 1.0 | 2.0 | 0.00 | 0.00 | 0.00 | 85 | 1015.9 |
| 20260902103026 | 76 | 228 | 2.0 | 3.0 | 0.00 | 0.00 | 0.00 | 85 | 1015.2 |
| 20260902103014 | 76 | 227 | 1.0 | 2.0 | 0.00 | 0.00 | 0.00 | 85 | 1015.9 |
| 20260902102511 | 76 | 199 | 1.0 | 4.0 | 0.00 | 0.00 | 0.00 | 85 | 1015.1 |
| 20260902102013 | 76 | 229 | 1.0 | 3.0 | 0.00 | 0.00 | 0.00 | 85 | 1015.8 |
| 20260902101530 | 76 | 217 | 2.0 | 5.0 | 0.00 | 0.00 | 0.00 | 85 | 1015.1 |
| 20260902101509 | 76 | 223 | 1.0 | 3.0 | 0.00 | 0.00 | 0.00 | 85 | 1015.8 |
| 20260902101008 | 75 | 209 | 3.0 | 3.0 | 0.00 | 0.00 | 0.00 | 85 | 1015.0 |
| 20260902101005 | 75 | 230 | 1.0 | 2.0 | 0.00 | 0.00 | 0.00 | 85 | 1015.7 |
| 20260902100512 | 75 | 217 | 2.0 | 3.0 | 0.00 | 0.00 | 0.00 | 85 | 1015.0 |
| 20260902100505 | 75 | 219 | 1.0 | 2.0 | 0.00 | 0.00 | 0.00 | 85 | 1015.7 |
| 20260902100031 | 75 | 222 | 2.0 | 3.0 | 0.00 | 0.00 | 0.00 | 85 | 1015.0 |
| 20260902100010 | 75 | 224 | 1.0 | 2.0 | 0.00 | 0.00 | 0.00 | 85 | 1015.7 |
| 20260902095518 | 75 | 223 | 2.0 | 3.0 | 0.00 | 0.00 | 0.00 | 85 | 1014.9 |
| 20260902095508 | 75 | 219 | 1.0 | 2.0 | 0.00 | 0.00 | 0.00 | 85 | 1015.6 |
| 20260902095011 | 75 | 218 | 2.0 | 3.0 | 0.00 | 0.00 | 0.00 | 85 | 1014.9 |
| 20260902095007 | 75 | 224 | 1.0 | 2.0 | 0.00 | 0.00 | 0.00 | 85 | 1015.6 |
| 20260902094516 | 75 | 205 | 1.0 | 3.0 | 0.00 | 0.00 | 0.00 | 85 | 1015.0 |
| 20260902094009 | 75 | 205 | 2.0 | 3.0 | 0.00 | 0.00 | 0.00 | 86 | 1015.1 |
| 20260902094004 | 75 | 227 | 1.0 | 2.0 | 0.00 | 0.00 | 0.00 | 86 | 1015.7 |
| 20260902093509 | 75 | 189 | 1.0 | 2.0 | 0.00 | 0.00 | 0.00 | 85 | 1015.1 |
| 20260902093028 | 74 | 138 | 0.0 | 0.0 | 0.00 | 0.00 | 0.00 | 86 | 1015.9 |
| 20260902093026 | 74 | 146 | 0.0 | 2.0 | 0.00 | 0.00 | 0.00 | 86 | 1015.2 |
| 20260902092511 | 74 | 138 | 0.0 | 0.0 | 0.00 | 0.00 | 0.00 | 85 | 1015.9 |
| 20260902092014 | 74 | 146 | 0.0 | 0.0 | 0.00 | 0.00 | 0.00 | 85 | 1015.2 |
| 20260902092010 | 74 | 138 | 0.0 | 0.0 | 0.00 | 0.00 | 0.00 | 85 | 1015.9 |
| 20260902091523 | 75 | 146 | 0.0 | 0.0 | 0.00 | 0.00 | 0.00 | 85 | 1015.2 |
| 20260902091014 | 75 | 146 | 0.0 | 0.0 | 0.00 | 0.00 | 0.00 | 85 | 1015.2 |
| 20260902091012 | 75 | 138 | 0.0 | 0.0 | 0.00 | 0.00 | 0.00 | 85 | 1015.9 |
| 20260902090514 | 74 | 76 | 0.0 | 0.0 | 0.00 | 0.00 | 0.00 | 85 | 1015.2 |
| 20260902090505 | 74 | 138 | 0.0 | 0.0 | 0.00 | 0.00 | 0.00 | 85 | 1015.9 |
| 20260902090020 | 75 | 76 | 0.0 | 0.0 | 0.00 | 0.00 | 0.00 | 85 | 1015.2 |
| 20260902090008 | 75 | 138 | 0.0 | 0.0 | 0.00 | 0.00 | 0.00 | 85 | 1015.9 |
| 20260902085512 | 75 | 76 | 0.0 | 0.0 | 0.00 | 0.00 | 0.00 | 84 | 1015.2 |
| 20260902085506 | 75 | 138 | 0.0 | 0.0 | 0.00 | 0.00 | 0.00 | 84 | 1015.9 |
| 20260902085016 | 74 | 76 | 0.0 | 0.0 | 0.00 | 0.00 | 0.00 | 85 | 1015.2 |
| 20260902085004 | 74 | 138 | 0.0 | 0.0 | 0.00 | 0.00 | 0.00 | 85 | 1015.8 |
| 20260902084534 | 74 | 76 | 0.0 | 0.0 | 0.00 | 0.00 | 0.00 | 85 | 1015.2 |
| 20260902084514 | 74 | 138 | 0.0 | 0.0 | 0.00 | 0.00 | 0.00 | 85 | 1015.9 |
| 20260902084011 | 75 | 138 | 0.0 | 0.0 | 0.00 | 0.00 | 0.00 | 84 | 1015.9 |
| 20260902084009 | 75 | 76 | 0.0 | 0.0 | 0.00 | 0.00 | 0.00 | 84 | 1015.3 |
| 20260902083507 | 75 | 76 | 0.0 | 0.0 | 0.00 | 0.00 | 0.00 | 84 | 1015.2 |
| 20260902083025 | 75 | 76 | 0.0 | 0.0 | 0.00 | 0.00 | 0.00 | 83 | 1015.2 |
| 20260902083009 | 75 | 138 | 0.0 | 0.0 | 0.00 | 0.00 | 0.00 | 83 | 1015.9 |
| 20260902082510 | 75 | 76 | 0.0 | 0.0 | 0.00 | 0.00 | 0.00 | 84 | 1015.2 |
| 20260902082508 | 75 | 138 | 0.0 | 0.0 | 0.00 | 0.00 | 0.00 | 84 | 1015.9 |
| 20260902082011 | 75 | 138 | 0.0 | 0.0 | 0.00 | 0.00 | 0.00 | 83 | 1015.8 |
| 20260902082002 | 75 | 76 | 0.0 | 0.0 | 0.00 | 0.00 | 0.00 | 83 | 1015.2 |
| 20260902081527 | 75 | 138 | 0.0 | 0.0 | 0.00 | 0.00 | 0.00 | 83 | 1015.9 |
| 20260902081506 | 75 | 76 | 0.0 | 0.0 | 0.00 | 0.00 | 0.00 | 83 | 1015.3 |
| 20260902081006 | 75 | 138 | 0.0 | 0.0 | 0.00 | 0.00 | 0.00 | 83 | 1016.0 |
| 20260902081003 | 75 | 76 | 0.0 | 0.0 | 0.00 | 0.00 | 0.00 | 83 | 1015.3 |
| 20260902080510 | 76 | 138 | 0.0 | 0.0 | 0.00 | 0.00 | 0.00 | 82 | 1016.0 |
| 20260902080503 | 76 | 76 | 0.0 | 0.0 | 0.00 | 0.00 | 0.00 | 82 | 1015.3 |
| 20260902080030 | 76 | 138 | 0.0 | 0.0 | 0.00 | 0.00 | 0.00 | 82 | 1016.0 |
| 20260902080004 | 76 | 76 | 0.0 | 0.0 | 0.00 | 0.00 | 0.00 | 82 | 1015.3 |
| 20260902075506 | 75 | 138 | 0.0 | 0.0 | 0.00 | 0.00 | 0.00 | 83 | 1016.0 |
| 20260902075504 | 75 | 76 | 0.0 | 0.0 | 0.00 | 0.00 | 0.00 | 83 | 1015.3 |
| 20260902075005 | 75 | 76 | 0.0 | 0.0 | 0.00 | 0.00 | 0.00 | 82 | 1015.4 |
| 20260902074515 | 76 | 138 | 0.0 | 0.0 | 0.00 | 0.00 | 0.00 | 82 | 1016.2 |
| 20260902074506 | 76 | 76 | 0.0 | 0.0 | 0.00 | 0.00 | 0.00 | 82 | 1015.5 |
| 20260902074006 | 76 | 138 | 0.0 | 0.0 | 0.00 | 0.00 | 0.00 | 82 | 1016.2 |
| 20260902074004 | 76 | 76 | 0.0 | 0.0 | 0.00 | 0.00 | 0.00 | 82 | 1015.5 |
| 20260902073511 | 76 | 76 | 0.0 | 0.0 | 0.00 | 0.00 | 0.00 | 82 | 1015.5 |
| 20260902073508 | 76 | 138 | 0.0 | 0.0 | 0.00 | 0.00 | 0.00 | 82 | 1016.2 |
| 20260902073021 | 76 | 76 | 0.0 | 0.0 | 0.00 | 0.00 | 0.00 | 82 | 1015.6 |
| 20260902073018 | 76 | 138 | 0.0 | 0.0 | 0.00 | 0.00 | 0.00 | 82 | 1016.3 |
| 20260902072507 | 76 | 138 | 0.0 | 0.0 | 0.00 | 0.00 | 0.00 | 81 | 1016.4 |
| 20260902072504 | 76 | 76 | 0.0 | 0.0 | 0.00 | 0.00 | 0.00 | 81 | 1015.7 |
| 20260902072004 | 76 | 76 | 0.0 | 0.0 | 0.00 | 0.00 | 0.00 | 81 | 1015.7 |
| 20260902071529 | 76 | 138 | 0.0 | 0.0 | 0.00 | 0.00 | 0.00 | 81 | 1016.5 |
| 20260902071518 | 76 | 76 | 0.0 | 0.0 | 0.00 | 0.00 | 0.00 | 81 | 1015.7 |
| 20260902071015 | 76 | 76 | 0.0 | 0.0 | 0.00 | 0.00 | 0.00 | 81 | 1015.8 |
| 20260902071012 | 76 | 138 | 0.0 | 0.0 | 0.00 | 0.00 | 0.00 | 81 | 1016.5 |
| 20260902070516 | 76 | 138 | 0.0 | 0.0 | 0.00 | 0.00 | 0.00 | 80 | 1016.6 |
| 20260902070502 | 76 | 76 | 0.0 | 0.0 | 0.00 | 0.00 | 0.00 | 80 | 1015.8 |
| 20260902070015 | 76 | 138 | 0.0 | 0.0 | 0.00 | 0.00 | 0.00 | 80 | 1016.6 |
| 20260902070007 | 76 | 76 | 0.0 | 0.0 | 0.00 | 0.00 | 0.00 | 80 | 1015.8 |
| 20260902065509 | 77 | 138 | 0.0 | 0.0 | 0.00 | 0.00 | 0.00 | 80 | 1016.5 |
| 20260902065504 | 77 | 76 | 0.0 | 0.0 | 0.00 | 0.00 | 0.00 | 80 | 1015.8 |
| 20260902065014 | 77 | 138 | 0.0 | 0.0 | 0.00 | 0.00 | 0.00 | 79 | 1016.5 |
| 20260902065006 | 77 | 76 | 0.0 | 0.0 | 0.00 | 0.00 | 0.00 | 79 | 1015.8 |
| 20260902064514 | 77 | 138 | 0.0 | 0.0 | 0.00 | 0.00 | 0.00 | 79 | 1016.4 |
| 20260902064511 | 77 | 76 | 0.0 | 0.0 | 0.00 | 0.00 | 0.00 | 79 | 1015.7 |
| 20260902064010 | 77 | 138 | 0.0 | 0.0 | 0.00 | 0.00 | 0.00 | 79 | 1016.3 |
| 20260902064005 | 77 | 76 | 0.0 | 0.0 | 0.00 | 0.00 | 0.00 | 79 | 1015.6 |
| 20260902063508 | 77 | 138 | 0.0 | 2.0 | 0.00 | 0.00 | 0.00 | 78 | 1016.3 |
| 20260902063015 | 78 | 138 | 0.0 | 2.0 | 0.00 | 0.00 | 0.00 | 78 | 1016.3 |
| 20260902063006 | 78 | 76 | 0.0 | 2.0 | 0.00 | 0.00 | 0.00 | 78 | 1015.5 |
| 20260902062507 | 78 | 76 | 0.0 | 2.0 | 0.00 | 0.00 | 0.00 | 78 | 1015.4 |
| 20260902062012 | 78 | 76 | 0.0 | 2.0 | 0.00 | 0.00 | 0.00 | 77 | 1015.5 |
| 20260902062010 | 78 | 138 | 0.0 | 0.0 | 0.00 | 0.00 | 0.00 | 77 | 1016.2 |
| 20260902061518 | 78 | 138 | 0.0 | 2.0 | 0.00 | 0.00 | 0.00 | 76 | 1016.2 |
| 20260902061511 | 78 | 76 | 0.0 | 2.0 | 0.00 | 0.00 | 0.00 | 76 | 1015.4 |
| 20260902061009 | 78 | 138 | 0.0 | 2.0 | 0.00 | 0.00 | 0.00 | 76 | 1016.2 |
| 20260902061006 | 78 | 76 | 0.0 | 2.0 | 0.00 | 0.00 | 0.00 | 76 | 1015.4 |
| 20260902060510 | 78 | 76 | 0.0 | 2.0 | 0.00 | 0.00 | 0.00 | 76 | 1015.4 |
| 20260902060507 | 78 | 148 | 0.0 | 0.0 | 0.00 | 0.00 | 0.00 | 76 | 1016.1 |
| 20260902060032 | 78 | 148 | 0.0 | 2.0 | 0.00 | 0.00 | 0.00 | 76 | 1016.1 |
| 20260902060025 | 78 | 76 | 0.0 | 2.0 | 0.00 | 0.00 | 0.00 | 76 | 1015.4 |
| 20260902055514 | 79 | 148 | 0.0 | 2.0 | 0.00 | 0.00 | 0.00 | 75 | 1016.2 |
| 20260902055505 | 79 | 87 | 0.0 | 2.0 | 0.00 | 0.00 | 0.00 | 75 | 1015.4 |
| 20260902055008 | 79 | 148 | 0.0 | 2.0 | 0.00 | 0.00 | 0.00 | 74 | 1016.2 |
| 20260902055004 | 79 | 87 | 1.0 | 2.0 | 0.00 | 0.00 | 0.00 | 74 | 1015.5 |
| 20260902054527 | 80 | 180 | 0.0 | 2.0 | 0.00 | 0.00 | 0.00 | 73 | 1016.2 |
| 20260902054507 | 80 | 88 | 0.0 | 2.0 | 0.00 | 0.00 | 0.00 | 73 | 1015.5 |
| 20260902054015 | 80 | 202 | 0.0 | 2.0 | 0.00 | 0.00 | 0.00 | 74 | 1016.2 |
| 20260902054004 | 80 | 115 | 0.0 | 2.0 | 0.00 | 0.00 | 0.00 | 74 | 1015.5 |
| 20260902053505 | 79 | 72 | 1.0 | 3.0 | 0.00 | 0.00 | 0.00 | 74 | 1015.5 |
| 20260902053012 | 79 | 104 | 0.0 | 3.0 | 0.00 | 0.00 | 0.00 | 75 | 1015.5 |
| 20260902052507 | 79 | 88 | 0.0 | 2.0 | 0.00 | 0.00 | 0.00 | 75 | 1016.2 |
| 20260902052008 | 79 | 81 | 0.0 | 2.0 | 0.00 | 0.00 | 0.00 | 74 | 1015.5 |
| 20260902051518 | 80 | 88 | 0.0 | 2.0 | 0.00 | 0.00 | 0.00 | 74 | 1016.2 |
| 20260902051514 | 80 | 81 | 0.0 | 2.0 | 0.00 | 0.00 | 0.00 | 74 | 1015.5 |
| 20260902051009 | 80 | 132 | 0.0 | 2.0 | 0.00 | 0.00 | 0.00 | 74 | 1016.2 |
| 20260902050511 | 80 | 132 | 0.0 | 2.0 | 0.00 | 0.00 | 0.00 | 74 | 1016.2 |
| 20260902050503 | 80 | 71 | 0.0 | 2.0 | 0.00 | 0.00 | 0.00 | 74 | 1015.5 |
| 20260902050023 | 80 | 71 | 0.0 | 2.0 | 0.00 | 0.00 | 0.00 | 73 | 1015.5 |
| 20260902050016 | 80 | 101 | 0.0 | 2.0 | 0.00 | 0.00 | 0.00 | 73 | 1016.2 |
| 20260902045510 | 80 | 101 | 0.0 | 2.0 | 0.00 | 0.00 | 0.00 | 72 | 1016.2 |
| 20260902045507 | 80 | 80 | 0.0 | 2.0 | 0.00 | 0.00 | 0.00 | 72 | 1015.4 |
| 20260902045012 | 81 | 80 | 0.0 | 2.0 | 0.00 | 0.00 | 0.00 | 71 | 1015.3 |
| 20260902044539 | 81 | 136 | 0.0 | 2.0 | 0.00 | 0.00 | 0.00 | 71 | 1016.0 |
| 20260902044506 | 81 | 80 | 1.0 | 2.0 | 0.00 | 0.00 | 0.00 | 71 | 1015.4 |
| 20260902044009 | 81 | 157 | 0.0 | 2.0 | 0.00 | 0.00 | 0.00 | 71 | 1016.1 |
| 20260902044006 | 81 | 80 | 0.0 | 2.0 | 0.00 | 0.00 | 0.00 | 71 | 1015.5 |
| 20260902043511 | 81 | 87 | 0.0 | 2.0 | 0.00 | 0.00 | 0.00 | 70 | 1016.1 |
| 20260902043504 | 81 | 73 | 1.0 | 2.0 | 0.00 | 0.00 | 0.00 | 70 | 1015.5 |
| 20260902043030 | 82 | 130 | 0.0 | 2.0 | 0.00 | 0.00 | 0.00 | 70 | 1016.0 |
| 20260902043011 | 82 | 78 | 0.0 | 2.0 | 0.00 | 0.00 | 0.00 | 70 | 1015.5 |
| 20260902042517 | 82 | 269 | 0.0 | 2.0 | 0.00 | 0.00 | 0.00 | 69 | 1016.0 |
| 20260902042508 | 82 | 131 | 1.0 | 2.0 | 0.00 | 0.00 | 0.00 | 69 | 1015.5 |
| 20260902042008 | 82 | 165 | 0.0 | 2.0 | 0.00 | 0.00 | 0.00 | 68 | 1016.2 |
| 20260902041523 | 83 | 71 | 1.0 | 3.0 | 0.00 | 0.00 | 0.00 | 68 | 1015.4 |
| 20260902041517 | 83 | 115 | 0.0 | 3.0 | 0.00 | 0.00 | 0.00 | 68 | 1016.1 |
| 20260902041011 | 83 | 279 | 1.0 | 6.0 | 0.00 | 0.00 | 0.00 | 67 | 1016.0 |
| 20260902041005 | 83 | 64 | 1.0 | 6.0 | 0.00 | 0.00 | 0.00 | 67 | 1015.3 |
| 20260902040511 | 83 | 64 | 2.0 | 6.0 | 0.00 | 0.00 | 0.00 | 67 | 1016.0 |
| 20260902040508 | 83 | 92 | 1.0 | 5.0 | 0.00 | 0.00 | 0.00 | 67 | 1015.3 |
| 20260902040027 | 83 | 102 | 1.0 | 5.0 | 0.00 | 0.00 | 0.00 | 68 | 1015.3 |
| 20260902040023 | 83 | 117 | 1.0 | 6.0 | 0.00 | 0.00 | 0.00 | 68 | 1016.0 |
| 20260902035516 | 83 | 53 | 1.0 | 6.0 | 0.00 | 0.00 | 0.00 | 67 | 1015.2 |
| 20260902035511 | 83 | 113 | 1.0 | 6.0 | 0.00 | 0.00 | 0.00 | 67 | 1015.9 |
| 20260902035015 | 83 | 127 | 1.0 | 5.0 | 0.00 | 0.00 | 0.00 | 68 | 1015.8 |
| 20260902035007 | 83 | 92 | 1.0 | 6.0 | 0.00 | 0.00 | 0.00 | 68 | 1015.2 |
| 20260902034524 | 83 | 92 | 0.0 | 4.0 | 0.00 | 0.00 | 0.00 | 67 | 1015.9 |
| 20260902034015 | 82 | 113 | 1.0 | 4.0 | 0.00 | 0.00 | 0.00 | 68 | 1015.1 |
| 20260902034013 | 82 | 141 | 0.0 | 2.0 | 0.00 | 0.00 | 0.00 | 68 | 1015.8 |
| 20260902033515 | 82 | 92 | 0.0 | 2.0 | 0.00 | 0.00 | 0.00 | 68 | 1015.8 |
| 20260902033503 | 82 | 88 | 0.0 | 3.0 | 0.00 | 0.00 | 0.00 | 68 | 1015.1 |
| 20260902033016 | 82 | 163 | 0.0 | 2.0 | 0.00 | 0.00 | 0.00 | 69 | 1015.7 |
| 20260902033006 | 82 | 98 | 0.0 | 2.0 | 0.00 | 0.00 | 0.00 | 69 | 1015.0 |
| 20260902032514 | 82 | 98 | 0.0 | 2.0 | 0.00 | 0.00 | 0.00 | 70 | 1015.6 |
| 20260902032507 | 82 | 94 | 1.0 | 2.0 | 0.00 | 0.00 | 0.00 | 70 | 1014.9 |
| 20260902032014 | 82 | 105 | 0.0 | 2.0 | 0.00 | 0.00 | 0.00 | 69 | 1015.5 |
| 20260902032005 | 82 | 72 | 1.0 | 2.0 | 0.00 | 0.00 | 0.00 | 69 | 1014.7 |
| 20260902031539 | 82 | 117 | 0.0 | 2.0 | 0.00 | 0.00 | 0.00 | 69 | 1015.4 |
| 20260902031510 | 82 | 90 | 0.0 | 2.0 | 0.00 | 0.00 | 0.00 | 69 | 1014.7 |
| 20260902031007 | 82 | 113 | 0.0 | 2.0 | 0.00 | 0.00 | 0.00 | 68 | 1015.3 |
| 20260902030508 | 82 | 113 | 0.0 | 2.0 | 0.00 | 0.00 | 0.00 | 68 | 1015.2 |
| 20260902030018 | 83 | 180 | 0.0 | 2.0 | 0.00 | 0.00 | 0.00 | 67 | 1015.2 |
| 20260902030006 | 83 | 143 | 0.0 | 2.0 | 0.00 | 0.00 | 0.00 | 67 | 1014.5 |
| 20260902025508 | 83 | 143 | 0.0 | 2.0 | 0.00 | 0.00 | 0.00 | 66 | 1014.4 |
| 20260902025011 | 83 | 139 | 0.0 | 2.0 | 0.00 | 0.00 | 0.00 | 67 | 1015.0 |
| 20260902024534 | 83 | 143 | 0.0 | 2.0 | 0.00 | 0.00 | 0.00 | 65 | 1014.2 |
| 20260902024524 | 83 | 139 | 0.0 | 0.0 | 0.00 | 0.00 | 0.00 | 65 | 1015.0 |
| 20260902024012 | 83 | 139 | 0.0 | 1.0 | 0.00 | 0.00 | 0.00 | 64 | 1014.9 |
| 20260902024006 | 83 | 143 | 0.0 | 2.0 | 0.00 | 0.00 | 0.00 | 64 | 1014.1 |
| 20260902023509 | 83 | 76 | 0.0 | 2.0 | 0.00 | 0.00 | 0.00 | 66 | 1014.0 |
| 20260902023029 | 83 | 76 | 0.0 | 2.0 | 0.00 | 0.00 | 0.00 | 65 | 1013.9 |
| 20260902022515 | 83 | 139 | 0.0 | 2.0 | 0.00 | 0.00 | 0.00 | 66 | 1014.5 |
| 20260902022504 | 83 | 76 | 0.0 | 2.0 | 0.00 | 0.00 | 0.00 | 66 | 1014.0 |
| 20260902022008 | 83 | 139 | 0.0 | 2.0 | 0.00 | 0.00 | 0.00 | 66 | 1014.5 |
| 20260902022004 | 83 | 76 | 0.0 | 2.0 | 0.00 | 0.00 | 0.00 | 66 | 1013.8 |
| 20260902021536 | 83 | 139 | 0.0 | 2.0 | 0.00 | 0.00 | 0.00 | 65 | 1014.5 |
| 20260902021514 | 83 | 76 | 0.0 | 2.0 | 0.00 | 0.00 | 0.00 | 64 | 1013.7 |
| 20260902021016 | 83 | 121 | 0.0 | 2.0 | 0.00 | 0.00 | 0.00 | 64 | 1014.5 |
| 20260902021004 | 83 | 103 | 0.0 | 2.0 | 0.00 | 0.00 | 0.00 | 64 | 1013.6 |
| 20260902020507 | 84 | 121 | 0.0 | 2.0 | 0.00 | 0.00 | 0.00 | 63 | 1014.3 |
| 20260902020504 | 84 | 103 | 0.0 | 2.0 | 0.00 | 0.00 | 0.00 | 63 | 1013.6 |
| 20260902020018 | 84 | 103 | 0.0 | 2.0 | 0.00 | 0.00 | 0.00 | 65 | 1013.5 |
| 20260902015508 | 84 | 103 | 0.0 | 2.0 | 0.00 | 0.00 | 0.00 | 64 | 1013.5 |
| 20260902015007 | 84 | 121 | 0.0 | 0.0 | 0.00 | 0.00 | 0.00 | 63 | 1014.2 |
| 20260902015004 | 84 | 103 | 0.0 | 2.0 | 0.00 | 0.00 | 0.00 | 63 | 1013.4 |
| 20260902014535 | 85 | 121 | 0.0 | 0.0 | 0.00 | 0.00 | 0.00 | 62 | 1014.2 |
| 20260902014528 | 85 | 103 | 0.0 | 1.0 | 0.00 | 0.00 | 0.00 | 62 | 1013.4 |
| 20260902014013 | 85 | 121 | 0.0 | 0.0 | 0.00 | 0.00 | 0.00 | 62 | 1014.1 |
| 20260902013517 | 85 | 103 | 0.0 | 0.0 | 0.00 | 0.00 | 0.00 | 60 | 1013.3 |
| 20260902013511 | 85 | 121 | 0.0 | 0.0 | 0.00 | 0.00 | 0.00 | 60 | 1014.1 |
| 20260902013027 | 86 | 121 | 0.0 | 0.0 | 0.00 | 0.00 | 0.00 | 61 | 1014.1 |
| 20260902013014 | 86 | 103 | 0.0 | 0.0 | 0.00 | 0.00 | 0.00 | 61 | 1013.3 |
| 20260902012512 | 86 | 103 | 0.0 | 0.0 | 0.00 | 0.00 | 0.00 | 58 | 1013.2 |
| 20260902012016 | 87 | 121 | 0.0 | 0.0 | 0.00 | 0.00 | 0.00 | 58 | 1014.1 |
| 20260902012014 | 87 | 103 | 0.0 | 0.0 | 0.00 | 0.00 | 0.00 | 58 | 1013.2 |
| 20260902011531 | 87 | 121 | 0.0 | 0.0 | 0.00 | 0.00 | 0.00 | 58 | 1013.9 |
| 20260902011508 | 87 | 103 | 0.0 | 2.0 | 0.00 | 0.00 | 0.00 | 58 | 1013.1 |
| 20260902011008 | 88 | 121 | 0.0 | 2.0 | 0.00 | 0.00 | 0.00 | 56 | 1013.9 |
| 20260902011006 | 88 | 103 | 0.0 | 2.0 | 0.00 | 0.00 | 0.00 | 56 | 1012.9 |
| 20260902010512 | 89 | 121 | 0.0 | 2.0 | 0.00 | 0.00 | 0.00 | 55 | 1013.8 |
| 20260902010507 | 89 | 103 | 0.0 | 2.0 | 0.00 | 0.00 | 0.00 | 55 | 1013.0 |
| 20260902010029 | 89 | 121 | 0.0 | 2.0 | 0.00 | 0.00 | 0.00 | 53 | 1013.7 |
| 20260902010024 | 89 | 103 | 0.0 | 2.0 | 0.00 | 0.00 | 0.00 | 53 | 1013.0 |
| 20260902005507 | 90 | 121 | 0.0 | 2.0 | 0.00 | 0.00 | 0.00 | 53 | 1013.8 |
| 20260902005011 | 91 | 103 | 0.0 | 2.0 | 0.00 | 0.00 | 0.00 | 52 | 1013.8 |
| 20260902005009 | 91 | 103 | 0.0 | 2.0 | 0.00 | 0.00 | 0.00 | 52 | 1012.9 |
| 20260902004523 | 91 | 157 | 0.0 | 2.0 | 0.00 | 0.00 | 0.00 | 52 | 1013.7 |
| 20260902004521 | 91 | 94 | 0.0 | 2.0 | 0.00 | 0.00 | 0.00 | 52 | 1012.9 |
| 20260902004012 | 91 | 171 | 0.0 | 3.0 | 0.00 | 0.00 | 0.00 | 53 | 1013.7 |
| 20260902004007 | 91 | 94 | 1.0 | 3.0 | 0.00 | 0.00 | 0.00 | 53 | 1013.0 |
| 20260902003511 | 92 | 172 | 0.0 | 3.0 | 0.00 | 0.00 | 0.00 | 51 | 1013.7 |
| 20260902003508 | 92 | 98 | 0.0 | 3.0 | 0.00 | 0.00 | 0.00 | 51 | 1013.0 |
| 20260902003029 | 92 | 120 | 1.0 | 3.0 | 0.00 | 0.00 | 0.00 | 50 | 1013.8 |
| 20260902002515 | 92 | 113 | 1.0 | 3.0 | 0.00 | 0.00 | 0.00 | 49 | 1013.1 |
| 20260902002012 | 93 | 154 | 1.0 | 4.0 | 0.00 | 0.00 | 0.00 | 49 | 1014.0 |
| 20260902002007 | 93 | 76 | 1.0 | 6.0 | 0.00 | 0.00 | 0.00 | 49 | 1013.1 |
| 20260902001525 | 93 | 107 | 2.0 | 6.0 | 0.00 | 0.00 | 0.00 | 49 | 1013.1 |
| 20260902001015 | 93 | 71 | 0.0 | 7.0 | 0.00 | 0.00 | 0.00 | 48 | 1013.2 |
| 20260902000516 | 93 | 238 | 0.0 | 4.0 | 0.00 | 0.00 | 0.00 | 48 | 1013.9 |
| 20260902000033 | 93 | 194 | 1.0 | 8.0 | 0.00 | 0.00 | 0.00 | 48 | 1013.9 |
| 20260902000013 | 93 | 210 | 1.0 | 8.0 | 0.00 | 0.00 | 0.00 | 48 | 1013.1 |
| 20260901235514 | 93 | 243 | 1.0 | 8.0 | 0.00 | 0.00 | 0.00 | 47 | 1013.8 |
| 20260901235508 | 93 | 72 | 1.0 | 8.0 | 0.00 | 0.00 | 0.00 | 47 | 1013.1 |
| 20260901235014 | 93 | 360 | 1.0 | 4.0 | 0.00 | 0.00 | 0.00 | 47 | 1013.8 |
| 20260901235007 | 93 | 78 | 1.0 | 7.0 | 0.00 | 0.00 | 0.00 | 47 | 1013.1 |
| 20260901234535 | 93 | 162 | 1.0 | 4.0 | 0.00 | 0.00 | 0.00 | 47 | 1013.8 |
| 20260901234515 | 93 | 103 | 2.0 | 7.0 | 0.00 | 0.00 | 0.00 | 47 | 1013.1 |
| 20260901234009 | 94 | 344 | 1.0 | 5.0 | 0.00 | 0.00 | 0.00 | 46 | 1013.2 |
| 20260901233512 | 94 | 66 | 0.0 | 4.0 | 0.00 | 0.00 | 0.00 | 46 | 1013.8 |
| 20260901233510 | 94 | 103 | 0.0 | 5.0 | 0.00 | 0.00 | 0.00 | 46 | 1013.1 |
| 20260901233048 | 94 | 22 | 2.0 | 4.0 | 0.00 | 0.00 | 0.00 | 47 | 1013.1 |
| 20260901233022 | 94 | 71 | 1.0 | 4.0 | 0.00 | 0.00 | 0.00 | 47 | 1014.0 |
| 20260901232508 | 94 | 92 | 1.0 | 3.0 | 0.00 | 0.00 | 0.00 | 45 | 1013.1 |
| 20260901232506 | 94 | 48 | 1.0 | 3.0 | 0.00 | 0.00 | 0.00 | 45 | 1014.0 |
| 20260901232014 | 95 | 88 | 1.0 | 6.0 | 0.00 | 0.00 | 0.00 | 46 | 1013.0 |
| 20260901232010 | 95 | 123 | 0.0 | 6.0 | 0.00 | 0.00 | 0.00 | 46 | 1013.8 |
| 20260901231533 | 96 | 193 | 0.0 | 5.0 | 0.00 | 0.00 | 0.00 | 43 | 1013.7 |
| 20260901231505 | 96 | 62 | 1.0 | 7.0 | 0.00 | 0.00 | 0.00 | 43 | 1013.0 |
| 20260901231014 | 97 | 181 | 1.0 | 5.0 | 0.00 | 0.00 | 0.00 | 42 | 1013.7 |
| 20260901231006 | 97 | 84 | 2.0 | 7.0 | 0.00 | 0.00 | 0.00 | 42 | 1012.9 |
| 20260901230510 | 97 | 134 | 1.0 | 6.0 | 0.00 | 0.00 | 0.00 | 43 | 1013.5 |
| 20260901230504 | 97 | 105 | 2.0 | 6.0 | 0.00 | 0.00 | 0.00 | 43 | 1012.8 |
| 20260901230033 | 97 | 322 | 2.0 | 6.0 | 0.00 | 0.00 | 0.00 | 44 | 1013.6 |
| 20260901230005 | 97 | 331 | 3.0 | 6.0 | 0.00 | 0.00 | 0.00 | 44 | 1012.8 |
| 20260901225514 | 96 | 164 | 2.0 | 6.0 | 0.00 | 0.00 | 0.00 | 42 | 1013.6 |
| 20260901225504 | 96 | 53 | 1.0 | 6.0 | 0.00 | 0.00 | 0.00 | 42 | 1012.8 |
| 20260901225008 | 96 | 101 | 0.0 | 6.0 | 0.00 | 0.00 | 0.00 | 43 | 1013.6 |
| 20260901224528 | 97 | 86 | 3.0 | 6.0 | 0.00 | 0.00 | 0.00 | 45 | 1013.6 |
| 20260901224516 | 97 | 98 | 2.0 | 7.0 | 0.00 | 0.00 | 0.00 | 45 | 1012.9 |
| 20260901224015 | 97 | 174 | 2.0 | 9.0 | 0.00 | 0.00 | 0.00 | 42 | 1013.6 |
| 20260901224007 | 97 | 143 | 2.0 | 9.0 | 0.00 | 0.00 | 0.00 | 42 | 1012.9 |
| 20260901223508 | 98 | 76 | 3.0 | 9.0 | 0.00 | 0.00 | 0.00 | 42 | 1013.0 |
| 20260901223021 | 98 | 136 | 2.0 | 7.0 | 0.00 | 0.00 | 0.00 | 44 | 1012.8 |
| 20260901222510 | 98 | 346 | 2.0 | 6.0 | 0.00 | 0.00 | 0.00 | 42 | 1013.7 |
| 20260901222504 | 98 | 28 | 3.0 | 6.0 | 0.00 | 0.00 | 0.00 | 42 | 1012.9 |
| 20260901222012 | 98 | 130 | 1.0 | 6.0 | 0.00 | 0.00 | 0.00 | 39 | 1013.7 |
| 20260901222004 | 98 | 100 | 1.0 | 7.0 | 0.00 | 0.00 | 0.00 | 39 | 1013.0 |
| 20260901221542 | 98 | 117 | 3.0 | 6.0 | 0.00 | 0.00 | 0.00 | 39 | 1013.7 |
| 20260901221519 | 98 | 101 | 1.0 | 7.0 | 0.00 | 0.00 | 0.00 | 39 | 1013.0 |
| 20260901221015 | 98 | 360 | 2.0 | 6.0 | 0.00 | 0.00 | 0.00 | 39 | 1013.1 |
| 20260901220514 | 98 | 121 | 2.0 | 6.0 | 0.00 | 0.00 | 0.00 | 41 | 1013.8 |
| 20260901220504 | 98 | 69 | 2.0 | 6.0 | 0.00 | 0.00 | 0.00 | 41 | 1013.1 |
| 20260901220031 | 98 | 27 | 1.0 | 6.0 | 0.00 | 0.00 | 0.00 | 40 | 1013.8 |
| 20260901220010 | 98 | 53 | 1.0 | 7.0 | 0.00 | 0.00 | 0.00 | 40 | 1013.1 |
| 20260901215514 | 98 | 228 | 1.0 | 5.0 | 0.00 | 0.00 | 0.00 | 39 | 1013.8 |
| 20260901215505 | 98 | 338 | 2.0 | 7.0 | 0.00 | 0.00 | 0.00 | 39 | 1013.1 |
| 20260901215020 | 99 | 51 | 1.0 | 4.0 | 0.00 | 0.00 | 0.00 | 41 | 1013.9 |
| 20260901215005 | 99 | 96 | 2.0 | 5.0 | 0.00 | 0.00 | 0.00 | 41 | 1013.2 |
| 20260901214533 | 99 | 192 | 1.0 | 5.0 | 0.00 | 0.00 | 0.00 | 40 | 1013.9 |
| 20260901214526 | 99 | 61 | 1.0 | 6.0 | 0.00 | 0.00 | 0.00 | 40 | 1013.2 |
| 20260901214020 | 98 | 134 | 1.0 | 5.0 | 0.00 | 0.00 | 0.00 | 39 | 1013.9 |
| 20260901214008 | 98 | 65 | 2.0 | 6.0 | 0.00 | 0.00 | 0.00 | 39 | 1013.2 |
| 20260901213513 | 97 | 69 | 2.0 | 4.0 | 0.00 | 0.00 | 0.00 | 45 | 1013.9 |
| 20260901213508 | 97 | 91 | 1.0 | 6.0 | 0.00 | 0.00 | 0.00 | 45 | 1013.2 |
| 20260901213033 | 95 | 65 | 1.0 | 5.0 | 0.00 | 0.00 | 0.00 | 46 | 1014.0 |
| 20260901213009 | 95 | 55 | 1.0 | 5.0 | 0.00 | 0.00 | 0.00 | 46 | 1013.1 |
| 20260901212510 | 95 | 119 | 1.0 | 5.0 | 0.00 | 0.00 | 0.00 | 46 | 1014.0 |
| 20260901212014 | 95 | 198 | 1.0 | 5.0 | 0.00 | 0.00 | 0.00 | 46 | 1014.0 |
| 20260901212012 | 95 | 63 | 1.0 | 5.0 | 0.00 | 0.00 | 0.00 | 46 | 1013.3 |
| 20260901211532 | 96 | 217 | 1.0 | 4.0 | 0.00 | 0.00 | 0.00 | 45 | 1014.0 |
| 20260901211528 | 96 | 74 | 1.0 | 5.0 | 0.00 | 0.00 | 0.00 | 45 | 1013.3 |
| 20260901211014 | 98 | 106 | 1.0 | 6.0 | 0.00 | 0.00 | 0.00 | 45 | 1014.1 |
| 20260901211012 | 98 | 81 | 1.0 | 6.0 | 0.00 | 0.00 | 0.00 | 45 | 1013.3 |
| 20260901210512 | 97 | 32 | 2.0 | 5.0 | 0.00 | 0.00 | 0.00 | 44 | 1014.3 |
| 20260901210508 | 97 | 70 | 2.0 | 5.0 | 0.00 | 0.00 | 0.00 | 44 | 1013.4 |
| 20260901210027 | 95 | 196 | 1.0 | 5.0 | 0.00 | 0.00 | 0.00 | 46 | 1014.3 |
| 20260901205518 | 95 | 337 | 0.0 | 4.0 | 0.00 | 0.00 | 0.00 | 46 | 1014.4 |
| 20260901205504 | 95 | 341 | 2.0 | 5.0 | 0.00 | 0.00 | 0.00 | 46 | 1013.5 |
| 20260901205008 | 96 | 144 | 1.0 | 8.0 | 0.00 | 0.00 | 0.00 | 44 | 1014.4 |
| 20260901204514 | 98 | 352 | 2.0 | 9.0 | 0.00 | 0.00 | 0.00 | 43 | 1013.8 |
| 20260901204509 | 98 | 53 | 1.0 | 8.0 | 0.00 | 0.00 | 0.00 | 43 | 1014.5 |
| 20260901204010 | 99 | 94 | 2.0 | 6.0 | 0.00 | 0.00 | 0.00 | 43 | 1013.8 |
| 20260901204007 | 99 | 145 | 1.0 | 6.0 | 0.00 | 0.00 | 0.00 | 43 | 1014.6 |
| 20260901203507 | 98 | 50 | 1.0 | 5.0 | 0.00 | 0.00 | 0.00 | 42 | 1013.9 |
| 20260901203039 | 98 | 190 | 0.0 | 4.0 | 0.00 | 0.00 | 0.00 | 42 | 1014.6 |
| 20260901203015 | 98 | 107 | 1.0 | 5.0 | 0.00 | 0.00 | 0.00 | 42 | 1013.8 |
| 20260901202507 | 98 | 155 | 3.0 | 6.0 | 0.00 | 0.00 | 0.00 | 42 | 1013.8 |
| 20260901202012 | 99 | 132 | 2.0 | 5.0 | 0.00 | 0.00 | 0.00 | 43 | 1014.9 |
| 20260901202001 | 99 | 128 | 1.0 | 4.0 | 0.00 | 0.00 | 0.00 | 43 | 1014.0 |
| 20260901201530 | 99 | 311 | 1.0 | 3.0 | 0.00 | 0.00 | 0.00 | 41 | 1015.0 |
| 20260901201514 | 99 | 58 | 1.0 | 4.0 | 0.00 | 0.00 | 0.00 | 41 | 1014.1 |
| 20260901201012 | 100 | 44 | 2.0 | 4.0 | 0.00 | 0.00 | 0.00 | 41 | 1015.1 |
| 20260901200513 | 99 | 65 | 1.0 | 6.0 | 0.00 | 0.00 | 0.00 | 43 | 1015.1 |
| 20260901200022 | 98 | 173 | 1.0 | 6.0 | 0.00 | 0.00 | 0.00 | 44 | 1014.3 |
| 20260901200014 | 98 | 288 | 1.0 | 6.0 | 0.00 | 0.00 | 0.00 | 44 | 1015.1 |
| 20260901195508 | 98 | 67 | 1.0 | 5.0 | 0.00 | 0.00 | 0.00 | 43 | 1014.3 |
| 20260901195019 | 98 | 203 | 2.0 | 5.0 | 0.00 | 0.00 | 0.00 | 44 | 1014.3 |
| 20260901194531 | 96 | 198 | 1.0 | 8.0 | 0.00 | 0.00 | 0.00 | 45 | 1015.4 |
| 20260901194513 | 96 | 166 | 1.0 | 8.0 | 0.00 | 0.00 | 0.00 | 45 | 1014.4 |
| 20260901194011 | 95 | 186 | 1.0 | 8.0 | 0.00 | 0.00 | 0.00 | 46 | 1015.5 |
| 20260901194009 | 95 | 38 | 2.0 | 8.0 | 0.00 | 0.00 | 0.00 | 46 | 1014.6 |
| 20260901193507 | 97 | 115 | 1.0 | 4.0 | 0.00 | 0.00 | 0.00 | 45 | 1015.5 |
| 20260901193014 | 96 | 11 | 2.0 | 6.0 | 0.00 | 0.00 | 0.00 | 45 | 1014.8 |
| 20260901193012 | 96 | 25 | 1.0 | 6.0 | 0.00 | 0.00 | 0.00 | 45 | 1015.5 |
| 20260901192504 | 99 | 188 | 1.0 | 7.0 | 0.00 | 0.00 | 0.00 | 46 | 1015.4 |
| 20260901192008 | 99 | 38 | 3.0 | 7.0 | 0.00 | 0.00 | 0.00 | 44 | 1015.5 |
| 20260901191522 | 99 | 17 | 1.0 | 3.0 | 0.00 | 0.00 | 0.00 | 45 | 1015.6 |
| 20260901191518 | 99 | 340 | 3.0 | 7.0 | 0.00 | 0.00 | 0.00 | 45 | 1014.7 |
| 20260901191016 | 99 | 71 | 1.0 | 6.0 | 0.00 | 0.00 | 0.00 | 44 | 1015.6 |
| 20260901191010 | 99 | 110 | 1.0 | 6.0 | 0.00 | 0.00 | 0.00 | 44 | 1014.7 |
| 20260901190511 | 97 | 103 | 1.0 | 6.0 | 0.00 | 0.00 | 0.00 | 46 | 1014.9 |
| 20260901190507 | 97 | 279 | 0.0 | 6.0 | 0.00 | 0.00 | 0.00 | 46 | 1015.6 |
| 20260901190030 | 98 | 116 | 3.0 | 6.0 | 0.00 | 0.00 | 0.00 | 44 | 1015.7 |
| 20260901185517 | 97 | 22 | 1.0 | 3.0 | 0.00 | 0.00 | 0.00 | 43 | 1015.8 |
| 20260901185512 | 97 | 188 | 0.0 | 8.0 | 0.00 | 0.00 | 0.00 | 43 | 1015.1 |
| 20260901185008 | 98 | 298 | 1.0 | 9.0 | 0.00 | 0.00 | 0.00 | 43 | 1015.2 |
| 20260901184523 | 98 | 200 | 2.0 | 6.0 | 0.00 | 0.00 | 0.00 | 43 | 1016.0 |
| 20260901184520 | 98 | 170 | 3.0 | 9.0 | 0.00 | 0.00 | 0.00 | 43 | 1015.3 |
| 20260901184015 | 97 | 150 | 3.0 | 9.0 | 0.00 | 0.00 | 0.00 | 46 | 1015.3 |
| 20260901183518 | 95 | 59 | 1.0 | 6.0 | 0.00 | 0.00 | 0.00 | 48 | 1015.5 |
| 20260901183016 | 93 | 44 | 1.0 | 6.0 | 0.00 | 0.00 | 0.00 | 50 | 1016.2 |
| 20260901182507 | 94 | 157 | 1.0 | 4.0 | 0.00 | 0.00 | 0.00 | 49 | 1015.8 |
| 20260901182008 | 94 | 322 | 1.0 | 4.0 | 0.00 | 0.00 | 0.00 | 49 | 1015.9 |
| 20260901181519 | 92 | 30 | 0.0 | 2.0 | 0.00 | 0.00 | 0.00 | 51 | 1016.5 |
| 20260901181010 | 94 | 55 | 2.0 | 6.0 | 0.00 | 0.00 | 0.00 | 49 | 1016.0 |
| 20260901181007 | 94 | 80 | 1.0 | 6.0 | 0.00 | 0.00 | 0.00 | 49 | 1016.6 |
| 20260901180513 | 96 | 88 | 2.0 | 9.0 | 0.00 | 0.00 | 0.00 | 47 | 1016.2 |
| 20260901180509 | 96 | 204 | 1.0 | 8.0 | 0.00 | 0.00 | 0.00 | 47 | 1016.7 |
| 20260901180025 | 95 | 89 | 1.0 | 9.0 | 0.00 | 0.00 | 0.00 | 47 | 1016.3 |
| 20260901175511 | 94 | 352 | 1.0 | 4.0 | 0.00 | 0.00 | 0.00 | 50 | 1017.1 |
| 20260901175508 | 94 | 185 | 2.0 | 5.0 | 0.00 | 0.00 | 0.00 | 50 | 1016.4 |
| 20260901175013 | 94 | 137 | 1.0 | 8.0 | 0.00 | 0.00 | 0.00 | 51 | 1017.2 |
| 20260901174532 | 95 | 250 | 1.0 | 8.0 | 0.00 | 0.00 | 0.00 | 51 | 1017.3 |
| 20260901174530 | 95 | 336 | 1.0 | 8.0 | 0.00 | 0.00 | 0.00 | 51 | 1016.5 |
| 20260901174016 | 91 | 250 | 1.0 | 4.0 | 0.00 | 0.00 | 0.00 | 52 | 1016.6 |
| 20260901174008 | 91 | 318 | 1.0 | 4.0 | 0.00 | 0.00 | 0.00 | 52 | 1017.2 |
| 20260901173509 | 92 | 103 | 1.0 | 7.0 | 0.00 | 0.00 | 0.00 | 53 | 1016.8 |
| 20260901173507 | 92 | 109 | 1.0 | 7.0 | 0.00 | 0.00 | 0.00 | 53 | 1017.3 |
| 20260901173028 | 94 | 66 | 2.0 | 7.0 | 0.00 | 0.00 | 0.00 | 49 | 1016.8 |
| 20260901172518 | 96 | 263 | 1.0 | 3.0 | 0.00 | 0.00 | 0.00 | 49 | 1017.6 |
| 20260901172516 | 96 | 234 | 2.0 | 7.0 | 0.00 | 0.00 | 0.00 | 49 | 1016.8 |
| 20260901172007 | 93 | 244 | 1.0 | 6.0 | 0.00 | 0.00 | 0.00 | 51 | 1017.6 |
| 20260901171515 | 94 | 167 | 1.0 | 6.0 | 0.00 | 0.00 | 0.00 | 54 | 1017.7 |
| 20260901171512 | 94 | 184 | 1.0 | 7.0 | 0.00 | 0.00 | 0.00 | 54 | 1016.9 |
| 20260901171010 | 93 | 263 | 4.0 | 7.0 | 0.00 | 0.00 | 0.00 | 54 | 1017.0 |
| 20260901171007 | 93 | 275 | 1.0 | 3.0 | 0.00 | 0.00 | 0.00 | 54 | 1017.8 |
| 20260901170508 | 93 | 32 | 1.0 | 3.0 | 0.00 | 0.00 | 0.00 | 55 | 1017.9 |
| 20260901170506 | 93 | 322 | 2.0 | 4.0 | 0.00 | 0.00 | 0.00 | 55 | 1017.1 |
| 20260901170020 | 93 | 159 | 1.0 | 6.0 | 0.00 | 0.00 | 0.00 | 54 | 1017.1 |
| 20260901170018 | 93 | 196 | 2.0 | 4.0 | 0.00 | 0.00 | 0.00 | 54 | 1017.9 |
| 20260901165512 | 93 | 119 | 2.0 | 4.0 | 0.00 | 0.00 | 0.00 | 53 | 1018.0 |
| 20260901165013 | 93 | 243 | 1.0 | 9.0 | 0.00 | 0.00 | 0.00 | 55 | 1017.2 |
| 20260901164523 | 92 | 117 | 1.0 | 5.0 | 0.00 | 0.00 | 0.00 | 54 | 1018.0 |
| 20260901164520 | 92 | 184 | 1.0 | 6.0 | 0.00 | 0.00 | 0.00 | 54 | 1017.2 |
| 20260901164011 | 92 | 216 | 1.0 | 5.0 | 0.00 | 0.00 | 0.00 | 54 | 1017.8 |
| 20260901163518 | 92 | 77 | 0.0 | 4.0 | 0.00 | 0.00 | 0.00 | 54 | 1017.2 |
| 20260901163516 | 92 | 203 | 1.0 | 4.0 | 0.00 | 0.00 | 0.00 | 54 | 1017.7 |
| 20260901163030 | 91 | 5 | 1.0 | 3.0 | 0.00 | 0.00 | 0.00 | 58 | 1017.8 |
| 20260901163017 | 91 | 209 | 2.0 | 4.0 | 0.00 | 0.00 | 0.00 | 58 | 1017.3 |
| 20260901162513 | 91 | 240 | 2.0 | 4.0 | 0.00 | 0.00 | 0.00 | 56 | 1017.2 |
| 20260901162508 | 91 | 307 | 1.0 | 3.0 | 0.00 | 0.00 | 0.00 | 56 | 1017.8 |
| 20260901162015 | 91 | 269 | 1.0 | 3.0 | 0.00 | 0.00 | 0.00 | 62 | 1018.0 |
| 20260901162012 | 91 | 269 | 2.0 | 4.0 | 0.00 | 0.00 | 0.00 | 62 | 1017.3 |
| 20260901161543 | 91 | 274 | 2.0 | 3.0 | 0.00 | 0.00 | 0.00 | 60 | 1017.3 |
| 20260901161538 | 91 | 223 | 1.0 | 3.0 | 0.00 | 0.00 | 0.00 | 60 | 1018.1 |
| 20260901161012 | 91 | 277 | 1.0 | 3.0 | 0.00 | 0.00 | 0.00 | 58 | 1018.2 |
| 20260901161008 | 91 | 280 | 0.0 | 4.0 | 0.00 | 0.00 | 0.00 | 58 | 1017.4 |
| 20260901160508 | 90 | 210 | 1.0 | 4.0 | 0.00 | 0.00 | 0.00 | 61 | 1017.3 |
| 20260901160036 | 90 | 200 | 1.0 | 3.0 | 0.00 | 0.00 | 0.00 | 61 | 1018.2 |
| 20260901160018 | 90 | 265 | 2.0 | 4.0 | 0.00 | 0.00 | 0.00 | 61 | 1017.4 |
| 20260901155509 | 90 | 206 | 1.0 | 2.0 | 0.00 | 0.00 | 0.00 | 60 | 1018.2 |